Weather History for Izmir, Turkey

Change the Weather History Date:

Wednesday, March 6, 2013

  Actual Average Record
Temperature  
Mean Temperature 48 °F -  
Max Temperature 62 °F 60 °F 78 °F (2002)
Min Temperature 33 °F 40 °F 30 °F (2004)
Degree Days  
Heating Degree Days 18    
Moisture  
Dew Point 26 °F    
Average Humidity 47    
Maximum Humidity 76    
Minimum Humidity 13    
Precipitation  
Precipitation 0.00 in - - ()
Sea Level Pressure  
Sea Level Pressure 30.28 in    
Wind  
Wind Speed 7 mph ()    
Max Wind Speed 13 mph    
Max Gust Speed -    
Visibility 7.0 miles    
Events      
Averages and records for this station are not official NWS values.
T = Trace of Precipitation, MM = Missing Value Source: Averaged Metar Reports

Daily Weather History Graph

Daily Weather History Graph

Search for Another Location

Airport:

Trip Planner

Search our weather history database for the weather conditions in past years. The results will help you decide how hot, cold, wet, or windy it might be!

Date:

Astronomy

Mar. 06, 2013 Rise Set
Actual Time 6:36 AM EET 6:09 PM EET
Civil Twilight 6:09 AM EET 6:36 PM EET
Nautical Twilight 5:39 AM EET 7:06 PM EET
Astronomical Twilight 5:08 AM EET 7:37 PM EET
Moon 2:23 AM EET (3/6) 12:34 PM EET (3/6)
Length of Visible Light 12h 26m
Length of Day
11h 33m
Waning Crescent, 33% of the Moon is Illuminated
Mar 6
Waning Crescent
Mar 11
New
Mar 19
First Quarter
Mar 27
Full
Apr 3
Last Quarter

Hourly Weather History & Observations

Time (EET) Temp. Windchill Dew Point Humidity Pressure Visibility Wind Dir Wind Speed Gust Speed Precip Events Conditions
12:20 AM 41.0 °F 34.3 °F 26.6 °F 57% 30.36 in - NNE 11.5 mph - N/A   Clear
12:50 AM 41.0 °F 34.7 °F 26.6 °F 57% 30.36 in - North 10.4 mph - N/A   Clear
1:20 AM 41.0 °F 34.7 °F 26.6 °F 57% 30.36 in - North 10.4 mph - N/A   Clear
1:50 AM 39.2 °F 32.5 °F 26.6 °F 61% 30.33 in - North 10.4 mph - N/A   Clear
2:00 AM 40 °F - 27 °F 47% 30.37 in 9 mi North 10.4 mph - -  
2:20 AM 39.2 °F 35.0 °F 26.6 °F 61% 30.33 in - North 5.8 mph - N/A   Clear
2:50 AM 39.2 °F 33.0 °F 26.6 °F 61% 30.33 in - North 9.2 mph - N/A   Clear
3:20 AM 39.2 °F 33.6 °F 26.6 °F 61% 30.33 in - North 8.1 mph - N/A   Clear
3:50 AM 39.2 °F 33.6 °F 24.8 °F 56% 30.33 in - North 8.1 mph - N/A   Clear
4:20 AM 37.4 °F 32.1 °F 24.8 °F 60% 30.33 in - North 6.9 mph - N/A   Clear
4:50 AM 35.6 °F 30.7 °F 24.8 °F 65% 30.33 in - North 5.8 mph - N/A   Clear
5:20 AM 35.6 °F 29.2 °F 24.8 °F 65% 30.33 in - North 8.1 mph - N/A   Clear
5:50 AM 37.4 °F 29.8 °F 24.8 °F 60% 30.33 in - North 11.5 mph - N/A   Clear
6:20 AM 37.4 °F 30.8 °F 24.8 °F 60% 30.33 in - North 9.2 mph - N/A   Clear
6:50 AM 37.4 °F 32.1 °F 24.8 °F 60% 30.33 in - NNE 6.9 mph - N/A   Clear
7:20 AM 39.2 °F 31.6 °F 24.8 °F 56% 30.33 in - North 12.7 mph - N/A   Clear
7:50 AM 39.2 °F 32.0 °F 26.6 °F 61% 30.33 in - NNE 11.5 mph - N/A   Clear
8:00 AM 40 °F - 26 °F 45% 30.36 in 9 mi NNE 11.5 mph - -  
8:20 AM 42.8 °F 36.2 °F 24.8 °F 49% 30.33 in - North 12.7 mph - N/A   Clear
8:50 AM 44.6 °F 39.7 °F 23.0 °F 43% 30.33 in - North 9.2 mph - N/A   Clear
9:20 AM 46.4 °F 42.9 °F 23.0 °F 40% 30.33 in - North 6.9 mph - N/A   Clear
9:50 AM 48.2 °F - 23.0 °F 37% 30.33 in - North 8.1 mph - N/A   Clear
10:20 AM 50.0 °F - 19.4 °F 30% 30.33 in - North 12.7 mph - N/A   Clear
10:50 AM 51.8 °F - 17.6 °F 26% 30.33 in - North 11.5 mph - N/A   Clear
11:20 AM 53.6 °F - 19.4 °F 26% 30.33 in - North 9.2 mph - N/A   Clear
11:50 AM 53.6 °F - 21.2 °F 28% 30.30 in - North 8.1 mph - N/A   Clear
12:20 PM 55.4 °F - 19.4 °F 25% 30.30 in - North 5.8 mph - N/A   Clear
12:50 PM 57.2 °F - 21.2 °F 25% 30.30 in - North 5.8 mph - N/A   Clear
1:20 PM 57.2 °F - 17.6 °F 21% 30.27 in - Variable 2.3 mph - N/A   Clear
1:50 PM 60.8 °F - 23.0 °F 23% 30.27 in - Calm Calm - N/A   Clear
2:00 PM 60 °F - 22 °F 13% 30.29 in 9 mi Calm Calm - -   Clear
2:20 PM 60.8 °F - 21.2 °F 22% 30.24 in - Calm Calm - N/A   Clear
2:50 PM 60.8 °F - 24.8 °F 25% 30.24 in - Variable 3.5 mph - N/A   Clear
3:20 PM 60.8 °F - 15.8 °F 17% 30.24 in - Variable 3.5 mph - N/A   Clear
3:50 PM 62.6 °F - 17.6 °F 18% 30.24 in - Calm Calm - N/A   Clear
4:20 PM 60.8 °F - 24.8 °F 25% 30.24 in - Calm Calm - N/A   Clear
4:50 PM 57.2 °F - 28.4 °F 33% 30.24 in - North 10.4 mph - N/A   Clear
5:20 PM 55.4 °F - 28.4 °F 36% 30.24 in - North 8.1 mph - N/A   Clear
5:50 PM 53.6 °F - 30.2 °F 41% 30.21 in - NNE 8.1 mph - N/A   Clear
6:20 PM 51.8 °F - 30.2 °F 44% 30.21 in - NNE 6.9 mph - N/A   Clear
6:50 PM 50.0 °F - 32.0 °F 50% 30.21 in - North 6.9 mph - N/A   Clear
7:20 PM 48.2 °F - 33.8 °F 58% 30.21 in - Calm Calm - N/A   Clear
7:50 PM 48.2 °F - 32.0 °F 54% 30.21 in - Variable 2.3 mph - N/A   Clear
8:00 PM 48 °F - 33 °F 43% 30.23 in 9 mi 2.3 mph - -   Partly Cloudy
8:20 PM 46.4 °F - 33.8 °F 62% 30.21 in - Calm Calm - N/A   Clear
8:50 PM 42.8 °F - 33.8 °F 70% 30.21 in 5.0 mi Calm Calm - N/A   Unknown
9:20 PM 42.8 °F - 33.8 °F 70% 30.21 in 5.0 mi Calm Calm - N/A   Unknown
9:50 PM 41.0 °F - 33.8 °F 76% 30.21 in 5.0 mi SW 1.2 mph - N/A   Unknown
10:20 PM 41.0 °F - 33.8 °F 76% 30.21 in 5.0 mi Calm Calm - N/A   Unknown
10:50 PM 42.8 °F - 32.0 °F 66% 30.21 in - Calm Calm - N/A   Clear
11:20 PM 42.8 °F - 33.8 °F 70% 30.21 in - Variable 1.2 mph - N/A   Clear
11:50 PM 42.8 °F - 33.8 °F 70% 30.18 in - Calm Calm - N/A   Clear